默认 日期 大小 文件数 浏览量 最新下载 xml
emperor磁力链接相关资源由用户搜索指令自动获取,结果来源于网络,本站不存储任何资料,亦不承担任何责任,请于24小时内删除,搜索到3673个磁力,用时4ms。
    {"READ ME - LEER.txt": 148, "BRASILEIROS, LEIAM-ME!.txt": 1675, "The Emperor's New Groove (ENG-ESP-ITA-PTBR).mkv": 4248754955}
创建时间: 2018-11-02 01:12:09 大小:3.96 GB 文件数量:3 热度:15 最近下载:2025-01-11 11:48:03
    {"Readme.txt": 5844, "The Mummy Tomb of the Dragon Emperor.7z": 925230505}
创建时间: 2018-11-02 03:26:11 大小:882.37 MB 文件数量:2 热度:17 最近下载:2025-01-28 19:59:02
    {"11 - Day 3.flac": 108322069, "02 - Deep Six.flac": 132818213, "10 - Odds Of Even.flac": 159489768, "05 - Warship My Wreck.flac": 144641376, "01 - Killing Strangers.flac": 141616311, "09 - Cupid Carries A Gun.flac": 129533143, "08 - Birds Of Hell Awaiting ...
创建时间: 2018-11-02 03:42:14 大小:1.55 GB 文件数量:13 热度:16 最近下载:2025-09-17 04:26:04
    {"front.jpg": 579724, "01. Defect.flac": 41027242, "02. Shadow.flac": 45801380, "03. Calypso.flac": 37023406, "04. Tireless.flac": 33084501, "Emperor - Shadow EP - 2017.auCDtect": 1642}
创建时间: 2018-11-02 04:41:19 大小:150.22 MB 文件数量:6 热度:12 最近下载:2024-11-23 21:54:01
    {"The.Emperor's.New.Groove.2000.SLOSubs.DVDRip.XviD-DrSi.avi": 730703872, "The.Emperor's.New.Groove.2000.SLOSubs.DVDRip.XviD-DrSi.nfo": 12423, "The.Emperor's.New.Groove.2000.SLOSubs.DVDRip.XviD-DrSi.srt": 57695}
创建时间: 2018-11-02 06:59:13 大小:696.92 MB 文件数量:3 热度:16 最近下载:2025-01-24 16:10:01
    {"WWW.YTS.TO.jpg": 105983, "The.Emperors.New.Groove.2000.720p.BluRay.x264.YIFY.mp4": 726824390}
创建时间: 2018-11-02 09:38:29 大小:693.25 MB 文件数量:2 热度:14 最近下载:2025-01-25 05:43:02
    {"01. Emperor - Haste (Phace Remix).mp3": 10478499, "03. Emperor - Made of Light (Klan Remix).mp3": 11706254, "02. Emperor - Jounce (Ivy Lab's 20-20 Remix).mp3": 7775348, "04. Emperor - Made of Light (Unplugged Version).mp3": 13790825}
创建时间: 2018-11-02 13:42:07 大小:41.72 MB 文件数量:4 热度:13 最近下载:2024-12-18 08:02:02
    {"cover, screens, nfo": {".nfo": 2726, "1.jpg": 38607, "2.jpg": 45925, "3.jpg": 51994, "4.jpg": 56188, "cover.png": 256790}, "Emperor (2012) DVDRip XviD AC3-GRG & mucker.avi": 1472579584}
创建时间: 2018-11-02 14:33:48 大小:1.37 GB 文件数量:7 热度:17 最近下载:2025-08-11 06:25:01
    {"Ciaphas Cain For the Emperor Warhammer 40,000 (Unabridged). ... , "Ciaphas Cain For the Emperor Warhammer 40,000 (Unabridged).jpg ... , "Ciaphas Cain For the Emperor Warhammer 40,000 (Unabridged).m4b ... , "Ciaphas Cain For the Emperor Warhammer 40,000 (Unabridged).nfo ...
创建时间: 2018-11-02 16:24:12 大小:244.31 MB 文件数量:4 热度:24 最近下载:2025-09-17 08:32:16
    {"reloaded.nfo": 7900, "rld-towaroiiee.iso": 12685869056}
创建时间: 2018-11-02 19:02:29 大小:11.81 GB 文件数量:2 热度:20 最近下载:2025-03-23 23:57:01
    {"RARBG.com.txt": 34, "Emperor.2012.1080p.BluRay.x264.DTS-FGT.mkv": 11089888942, "Emperor.2012.1080p.BluRay.x264.DTS-FGT.nfo": 4467}
创建时间: 2018-11-02 20:41:37 大小:10.33 GB 文件数量:3 热度:14 最近下载:2023-04-07 09:00:14
    ... Equilibrium.cue": 1192, "Emperor - IX Equilibrium.log": 2722, "Emperor - IX Equilibrium.flac ... ": 371596635, "Emperor - IX Equilibrium.accurip ...
创建时间: 2018-11-02 22:39:44 大小:422.53 MB 文件数量:19 热度:15 最近下载:2023-04-07 10:10:04
    {"Setup.exe": 1380598, "data1.bin": 9632919852, "data2_ru.bin": 1233734003, "data3_en.bin": 1223252847}
创建时间: 2018-11-02 23:31:29 大小:11.26 GB 文件数量:4 热度:14 最近下载:2025-03-24 00:15:03
    ... ].mp3": 12549619, "Gauntlet-Birthplace.Of.Emperor.(2014).[MuSi].txt": 5496}
创建时间: 2018-11-03 02:17:36 大小:110.58 MB 文件数量:12 热度:14 最近下载:2025-10-13 00:46:02
    {"Augustus, Rome's First Emperor by Anthony Everitt.epub": 3007761}
创建时间: 2018-11-03 04:07:29 大小:2.87 MB 文件数量:1 热度:21 最近下载:2025-08-18 23:58:01
    {"01 Gathering Storm.mp3": 21691163, "01 Murray Ostril- 'They Don't Sleep Anymore On the Beach'.mp3": 22416740, "02 Terrible Canyons of Static Torrent downloaded from Demonoid.mp3": 21748006, "02 She Dreamt She Was a Bulldozer, She Dreamt She Was Alone In ...
创建时间: 2018-11-03 04:14:16 大小:80.21 MB 文件数量:4 热度:34 最近下载:2025-08-07 14:29:02
    {"The.Last.Emperor.1987.BluRay.720p.x264.DTS.AC3.DualAudio-MySilu.mkv": 8535391374, "The.Last.Emperor.1987.BluRay.720p.x264.DTS.AC3.DualAudio-MySilu.nfo": 3788, "The.Last.Emperor.1987.BluRay.720p.x264.DTS.AC3.DualAudio-MySilu.Sample.mkv": 59501547}
创建时间: 2018-11-03 05:26:47 大小:8 GB 文件数量:3 热度:27 最近下载:2024-12-26 09:57:07
    {"folder.jpg": 445076, "01 - Mladic.flac": 434017820, "02 - Their Helicopters' Sing.flac": 133795318, "03 - We Drift Like Worried Fire.flac": 421597695, "04 - Strung Like Lights At Thee Printemps Erable.flac": 167374930}
创建时间: 2018-11-03 12:10:32 大小:1.08 GB 文件数量:5 热度:32 最近下载:2025-09-26 13:52:03
    {"The.Emperor's.New.Groove.avi": 1179391198, "The.Emperor's.New.Groove.nfo": 1860}
创建时间: 2018-11-03 13:17:03 大小:1.1 GB 文件数量:2 热度:14 最近下载:2025-03-11 14:33:03
    {"01 - 09-15-00.mp3": 32720280, "03 - Motherfucker=redeemer.mp3": 45260310, "02 - Rockets Fall On Rocket Falls.mp3": 29833854, "00-godspeed_you_black_emperor-yanqui_u.x.o.-advance-2002-rh.m3u": 170, "00-godspeed_you_black_emperor-yanqui_u.x.o.-advance-2002 ...
创建时间: 2018-11-03 15:40:33 大小:102.83 MB 文件数量:6 热度:20 最近下载:2025-08-03 07:41:02